Tracking 19286 objects as of 18-Nov-2018
HD Live streaming from Space Station
objects crossing your sky now

OSCAR 24

Track OSCAR 24 now!
10-day predictions
OSCAR 24 is classified as:


NORAD ID: 15936
Int'l Code: 1985-066B
Perigee: 1,005.2 km
Apogee: 1,261.1 km
Inclination: 90.1 °
Period: 107.8 minutes
Semi major axis: 7504 km
RCS: 1.6504 m2 (large)
Launch date: August 3, 1985
Source: United States (US)
Launch site: AIR FORCE WESTERN TEST RANGE (AFWTR)
aabbcc
Your satellite tracking list
Your tracking list is empty




NASA's NSSDC Master Catalog

Two Line Element Set (TLE):
1 15936U 85066B   18321.85567904  .00000016  00000-0  11101-4 0  9993
2 15936  90.1372  50.4555 0170492 170.4034 311.0128 13.35529048622000
Source of the keplerian elements: AFSPC